347  
ASUS41 KAKQ 151714  
RWRAKQ  
 
REGIONAL WEATHER ROUNDUP  
NATIONAL WEATHER SERVICE WAKEFIELD VA  
100 PM EDT WED AUG 15 2018  
 
NOTE: "FAIR" INDICATES FEW OR NO CLOUDS BELOW 12,000 FEET WITH NO  
SIGNIFICANT WEATHER AND/OR S TO VISIBILITY
. * = DENOTES  
STATION MAY NOT REPORT PRECIPITATION (E.G., RAIN,SNOW,ETC.),
 
THUNDER OR FOG.  
 
VAZ042-051-052>054-056-151800-  
NORTHERN VIRGINIA  
 
CITY SKY/WX TMP DP RH WIND PRES REMARKS
 
WASH NATIONAL FAIR 89 67 47 VRB7 30.02F  
DULLES PTSUNNY 86 66 51 W14 30.04F  
FORT BELVOIR FAIR 88 69 52 W8 30.03F  
QUANTICO FAIR 87 70 56 MISG 30.04F  
FREDERICKSBRG* PTSUNNY 87 69 55 N5 30.04F  
STAFFORD* FAIR 86 69 57 W6 30.09S  
WARRENTON FAIR 88 63 43 NW3 30.05S  
CULPEPER* FAIR 87 67 51 N3 30.06S  
MANASSAS* FAIR 87 69 54 NW8 30.04F  
LEESBURG* FAIR 86 72 62 W10 30.05F  
WINCHESTER FAIR 81 64 57 W8 30.08S  
FRONT ROYAL* FAIR 82 68 61 NW6 30.06F  
LURAY* CLOUDY 82 66 57 SW5 30.08F  

 
 
VAZ048-049-060>072-079>083-151800-  
CENTRAL AND SOUTH CENTRAL VIRGINIA  
 
CITY SKY/WX TMP DP RH WIND PRES REMARKS
 
RICHMOND FAIR 86 65 49 CALM 30.05F  
CHESTERFIELD* FAIR 87 67 51 CALM 30.06F  
PETERSBURG* FAIR 87 64 45 CALM 30.06F  
HANOVER FAIR 87 68 52 CALM 30.06F  
TAPPAHANNOCK* FAIR 87 70 57 W5 30.06F  
QUINTON* FAIR 84 69 60 CALM 30.05F  
CHARLOTTSVILLE FAIR 87 66 49 CALM 30.07F  
GORDONSVILLE* FAIR 85 65 51 SW5 30.06F  
ORANGE* FAIR 84 68 58 SW7 30.06F  
LOUISA* FAIR 84 67 57 SW3 30.11S  
BUMPASS* FAIR 85 67 54 CALM 30.06F  
FARMVILLE* FAIR 84 65 52 CALM 30.07S  
CREWE* FAIR 85 65 51 CALM 30.08S  
FORT PICKETT* FAIR 86 65 48 E5 30.07F  
CHASE CITY* FAIR 84 68 57 CALM 30.09S  
CLARKSVILLE* FAIR 84 68 58 SW3 30.08F  
SOUTH HILL* FAIR 83 71 65 CALM 30.13F  
LAWRENCEVILLE* FAIR 84 65 52 SW5 30.07F  
EMPORIA* NOT AVBL  

 
 
VAZ088>098-151800-  
SOUTHEAST VIRGINIA  
 
CITY SKY/WX TMP DP RH WIND PRES REMARKS
 
NORFOLK FAIR 89 69 51 W6 30.04F  
VIRGINIA BEACH FAIR 87 69 54 E9 30.03F  
NORFOLK NAVAL FAIR 86 70 58 W8 30.06F  
WEST POINT* FAIR 85 69 58 SW3 30.06F  
SALUDA* FAIR 84 71 63 N5 30.05F  
NEWPORT NEWS FAIR N/A N/A N/A MISG 30.05F  
LANGLEY AFB MOSUNNY 87 69 53 NE7 30.05F  
FORT EUSTIS FAIR 86 65 49 W5 30.03F  
WILLIAMSBURG* FAIR 90 64 43 W6 30.06F  
HR EXEC AP* FAIR 87 71 58 VRB5 30.05F  
FRANKLIN* FAIR 87 69 54 W5 30.06S  
US460-WAKEFLD FAIR 88 67 49 VRB7 30.05F  

 
 
VAZ020-022-025-037-045-151800-  
WEST CENTRAL AND SOUTHWEST VIRGINIA  
 
CITY SKY/WX TMP DP RH WIND PRES REMARKS
 
STAUNTON* FAIR 81 64 55 CALM 30.12F  
WAYNESBORO* FAIR 81 66 59 SW3 30.12F  
HOT SPRINGS VA FAIR 71 67 86 W6 30.26S  
LYNCHBURG FAIR 84 64 50 CALM 30.11S  
DANVILLE FAIR 83 68 60 CALM 30.10S  
SOUTH BOSTON* FAIR 85 64 50 CALM 30.09S  
MARTINSVILLE FAIR 84 64 51 SE3 30.14F  
ROANOKE FAIR 84 62 47 VRB6 30.13F  
BLACKSBURG FAIR 77 67 69 W5 30.20F  
DUBLIN* FAIR 79 63 58 CALM 30.19F  
MARION* PTSUNNY 79 10 7 CALM 30.22F  
HILLSVILLE* FAIR 76 59 57 CALM 30.20F  
RICHLANDS* FAIR 76 60 56 W3 30.21F  
WISE* PTSUNNY 77 64 65 W5 30.22S  
ABINGDON* FAIR 82 64 54 N3 30.18F  

 
 
MDZ021>025-VAZ099-100-151800-  
SOUTHERN MARYLAND AND THE DELMARVA PENINSULA  
 
CITY SKY/WX TMP DP RH WIND PRES REMARKS
 
PATUXENT RIVER FAIR 88 67 49 W7 30.03F  
BAY BRIDGE APT FAIR 86 70 58 W6 30.01F  
LEONARDTOWN FAIR 84 68 58 W6 30.05F  
DOVER FAIR 85 68 56 NW9 29.98F  
GEORGETOWN FAIR 87 69 54 MISG 30.01F  
EASTON SUNNY 86 68 54 NW9 30.05F  
CAMBRIDGE SUNNY 84 70 61 W6 30.02F  
SALISBURY FAIR 86 70 58 W12 30.01F  
TANGIER FAIR 86 73 66 W5 30.04S  
OCEAN CITY FAIR 86 66 51 W10 30.01F  
WALLOPS ISLAND FAIR 89 67 47 W10 30.03S  
ACCOMACK* FAIR 85 68 56 W10 30.04F  

 
 
NCZ012>017-030>032-151800-  
NORTH CENTRAL AND EASTERN NORTH CAROLINA  
 
CITY SKY/WX TMP DP RH WIND PRES REMARKS
 
ROANOKE RAPIDS FAIR 86 66 51 CALM 30.06F  
RALEIGH FAIR 89 69 51 VRB3 30.08F  
ELIZABETH CITY FAIR 89 72 56 SW10 30.05F HX 96  
AHOSKIE* NOT AVBL  
EDENTON* FAIR 89 74 61 S6 30.07F HX 97  
CURRITUCK* FAIR 87 71 57 MISG 30.06F  
KILL DEVIL HLS FAIR 85 70 61 CALM 30.06S  
MANTEO FAIR 84 73 68 S10 30.07F  
CAPE HATTERAS FAIR 86 76 71 S7 30.08F HX 96  
TARBORO* NOT AVBL  
GOLDSBORO FAIR 89 71 56 CALM 30.05F  
WASHINGTON FAIR 89 70 53 W6 30.07F  
GREENVILLE FAIR 88 70 55 CALM 30.08F  
NEW BERN FAIR 88 76 67 CALM 30.08F HX 99  
WILMINGTON FAIR 89 70 53 W5 30.06F  

 
 
VAZ048-151800-  
ELSEWHERE  
 
CITY SKY/WX TMP DP RH WIND PRES REMARKS
 
HARRISBURG PA FAIR 86 68 54 NW12 29.99S  
BALTIMORE FAIR 86 69 56 W8 30.01S  
ANNAPOLIS FAIR 88 67 49 NW8 30.01F  
ANDREWS AFB FAIR 85 66 51 W8 30.02F  
PHILADELPHIA FAIR 85 64 49 NW9 29.97S  
HENDERSON NC FAIR 83 62 48 CALM 30.09S  
GREENSBORO PTSUNNY 83 63 50 CALM 30.11F  
ROCKY MOUNT FAIR 88 69 53 NW6 30.07S  

 
 
VAZ100-151800-  
MARINE  
 
STATION/POSITION TIME TEMP WIND PRES WAVE SWELL
 
AIR SEA DIR/SP/G HT/PER HT/PER  
(UTC) (F) (DEG/KT/KT) (MB) (FT/S) (FT/S)  
BRANDYWINE LGT 1636 80 290/ 7/ 8 1016.1F  
CAPE MAY NJ 1636 79 76 260/ 6/ 10 1015.2F  
LEWES DE 1636 83 74 290/ 10/ 11 1015.9F  
15NM E FENWICK I 1650 80 77 220/ 8/ 10 1016.4F 2/ 7 2/ 7  
OCEAN-CITY-INLET 1636 81 69 270/ 10/ 12 1016.8F  
WACHAPREAGUE VA 1636 86 81 260/ 6/ 12 1017.5S  
THOMAS POINT MD 1700 83 81 280/ 6/ 6 1017.2F  
GOOSES REEF MD 1630 83 270/ 6/ 8 1017.9F  
COVE POINT MD 1636 84 280/ 5/ 8 1017.5F  
SOLOMONS ISLAND 1636 85 83 190/ 2/ 5 1016.8F  
BISHOPS HEAD MD 1636 81 85 240/ 9/ 10 1017.5F  
PINEY POINT MD 1642 310/ 9/ 10 N/A  
POTOMAC MD 1630 81 290/ 8/ 10 1016.6F  
CAMBRIDGE MD 1636 86 85 1017.9F  
LEWISETTA VA 1636 84 83 320/ 7/ 8 1017.1F  
RAPPAHANNOCK LGT 1642 240/ 6/ 7 1018.3F  
YORK RVR RNG VA 1642 84 160/ 2/ 2 1018.2F  
YORKTOWN VA 1642 84 83 340/ 5/ 5 1017.2F  
DOMINION TERM VA 1642 82 320/ 4/ 6 1018.0F  
KIPTOPEKE VA 1642 82 270/ 4/ 5 N/A  
CAPE HENRY VA 1642 82 330/ 7/ 8 1016.0F  
WILLOUBY STN VA 1642 82 230/ 5/ 6 1017.0F  
S CRANEY ISL VA 1642 85 290/ 7/ 9 1017.5F  
CAPE HENRY BUOY 1700 77 N/A 2/ 7  
64NM E OF VA BCH 1650 80 82 240/ 10/ 12 1018.2S 4/ 6 3/ 6  
DUCK PIER NC 1642 84 80 220/ 7/ 10 1017.7F  
44100 DUCK FRF 1645 82 N/A 2/ 7  
44056 DUCK FRF 1700 81 N/A 2/13  
OREGON INLET NC 1636 81 82 190/ 7/ 8 1018.2F  
HATTERAS NC 1642 82 81 190/ 4/ 6 1018.5F  
DIAMOND SHLS NC 1700 81 84 250/ 8/ 10 1018.9  
CAPE LOOKOUT NC 1700 220/ 7/ 10 1018.9F  

 
 
 
CLICK HERE TO GO TO PREVIOUS BULLETINS.

The Nexlab VA Page
The Nexlab NC Page
The Nexlab MD Page Main Text Page